Location: Newark
(7.0858°N, 171.3717°E)
Time: 13:44:11
(UTC+00:00)

Vanguard 1 Rocket - Pass Details

Date: 28 November 2020
Orbit: 655 x 4222 km, 34.3° (Epoch: 23 January)

Event Time Altitude Azimuth Distance (km) Brightness Sun altitude
Rises 12:42:11 0° 249° (WSW) 7,350 12.0 -74.9°
Reaches altitude 10° 12:46:45 10° 252° (WSW) 6,669 11.7 -74.5°
Enters shadow 12:48:24 14° 254° (WSW) 6,438 11.6 -74.4°
Exits shadow 13:30:54 17° 41° (NE) 5,987 11.4 -68.1°
Drops below altitude 10° 13:33:55 10° 45° (NE) 6,394 11.6 -67.6°
Sets 13:38:17 0° 49° (NE) 7,041 12.0 -66.8°
